Theta_e
291 284 281 283 285 287 287 285 284 286 289 288 288 288 290 291 291 291 293 294 294 297 300 300 302 303 304 304 305 332 336 336 335 333 330 329 329 329 329 329 329 328 330 329
288 283 288 290 289 287 286 284 284 288 290 289 287 287 291 292 291 294 295 296 297 299 300 302 300 301 303 305 306 325 334 335 335 335 334 331 330 329 329 328 329 328 328 329
286 290 295 291 289 288 287 285 285 286 288 287 286 285 289 293 294 295 297 298 300 300 301 302 303 301 302 304 307 325 333 334 335 336 333 329 324 322 322 325 328 329 329 328
287 291 290 289 289 290 285 290 290 289 285 281 287 279 288 291 292 295 297 298 304 306 308 310 310 311 311 309 307 322 332 334 335 334 330 327 327 324 323 325 322 327 330 328
287 288 288 287 288 290 288 292 291 289 284 282 285 280 286 290 290 293 296 305 305 306 308 308 309 310 312 313 315 329 333 334 334 331 331 328 325 322 322 321 321 321 326 328
289 292 290 288 291 291 292 290 288 287 284 279 285 281 283 286 290 296 302 305 306 306 305 305 306 307 308 309 314 326 332 333 332 331 328 327 322 321 321 320 320 321 320 324
286 287 290 293 288 290 288 284 278 276 275 277 285 282 285 292 298 298 299 303 303 302 301 301 300 301 303 304 308 317 329 329 330 330 327 326 322 322 321 320 320 320 322 323
282 280 288 292 289 286 285 287 280 274 275 277 286 280 286 298 301 302 300 302 300 299 298 297 299 299 300 302 306 315 327 329 328 327 325 324 323 322 322 321 321 321 322 322
281 282 289 291 291 292 287 282 288 283 284 280 282 286 293 298 298 299 298 299 296 295 294 294 296 296 297 299 302 310 324 326 327 326 324 323 323 320 320 320 321 318 317 316
285 279 287 289 289 290 291 292 281 281 276 274 280 282 284 291 293 296 297 294 293 293 292 292 293 294 296 298 299 304 314 323 324 323 324 324 322 322 322 320 318 318 317 317
285 282 282 285 283 282 283 284 287 287 284 277 276 280 293 293 294 295 296 293 291 289 289 290 291 292 293 295 297 299 302 314 318 319 323 322 321 322 322 320 318 318 318 319
286 281 278 279 285 287 284 284 288 282 281 283 280 282 295 294 296 295 292 291 290 288 288 287 289 290 291 291 293 296 297 303 312 318 322 321 321 321 321 320 319 318 318 319
285 278 274 275 279 286 283 285 287 286 285 281 278 282 293 294 290 290 289 288 288 288 287 286 286 287 288 290 291 292 294 298 304 319 319 319 320 320 320 320 320 321 320 319
287 281 277 273 276 281 279 282 285 284 279 281 283 286 291 289 290 290 289 288 286 286 285 286 285 286 287 288 289 291 292 296 301 318 317 317 317 317 316 315 314 314 319 319
283 276 279 281 281 281 280 280 281 281 284 281 285 286 286 288 288 287 288 287 285 284 284 284 284 284 285 286 287 289 291 294 297 300 305 308 308 308 307 305 304 303 303 302
285 273 278 277 280 280 280 282 283 284 287 287 289 286 288 288 288 285 285 284 282 282 283 283 283 284 284 285 286 288 289 291 293 294 294 298 298 298 298 297 296 296 295 295
279 276 275 271 279 279 274 280 283 287 287 288 284 287 288 284 282 282 282 282 281 281 282 282 282 283 284 284 286 286 287 289 290 290 291 292 292 291 291 292 291 290 290 290
278 274 275 273 277 270 284 292 289 285 286 287 286 286 285 282 282 282 282 281 280 281 281 282 282 283 284 285 285 286 286 287 287 287 287 288 288 287 287 287 286 287 287 287
282 278 274 273 274 278 282 286 285 285 281 285 284 285 284 283 282 280 283 282 281 281 282 282 283 283 284 284 285 285 284 285 284 285 285 285 286 285 285 284 284 285 285 284
282 282 277 277 273 272 281 284 288 290 278 284 283 281 285 284 280 277 282 283 282 282 282 282 283 283 282 283 284 282 281 281 282 283 284 285 286 285 284 283 283 283 283 283
278 279 275 276 275 280 283 285 289 279 278 283 282 280 280 279 280 281 283 282 283 282 282 282 281 282 282 282 282 280 280 279 281 282 282 282 283 285 285 285 284 283 282 282
280 278 278 278 276 274 285 285 281 284 285 283 282 281 279 279 278 278 280 280 281 280 280 280 280 280 282 282 281 279 279 280 281 280 280 280 280 281 282 283 283 283 281 280
279 282 279 281 277 283 285 284 287 287 284 283 283 282 280 279 277 279 279 280 280 279 279 279 279 279 280 282 282 279 280 280 279 279 278 278 279 279 279 279 280 280 280 279
282 285 282 281 282 283 284 284 284 285 283 284 284 282 281 279 278 278 279 279 279 279 278 279 278 278 278 281 282 283 283 281 279 277 277 277 278 277 278 278 278 277 277 277
281 283 282 280 282 283 283 284 284 283 283 283 282 281 279 278 278 278 277 277 278 278 278 278 277 277 277 279 280 281 283 283 280 278 278 276 276 276 277 278 278 277 278 277
282 280 279 276 282 282 281 283 285 282 281 281 279 278 278 277 277 277 276 277 277 277 277 276 277 276 276 277 277 278 280 281 281 280 279 277 275 275 275 275 275 280 280 280
Wind_Speed
3 3 9 9 8 5 5 11 15 14 10 7 12 14 18 9 9 11 13 12 13 15 15 10 10 9 10 9 8 16 18 16 13 11 11 9 11 9 7 6 8 7 7 8
1 9 11 10 8 8 10 15 17 19 17 10 11 18 18 15 10 15 16 16 17 17 16 16 10 10 9 11 11 15 19 19 17 13 13 7 8 5 6 6 7 8 8 8
8 9 7 10 12 11 15 13 15 16 6 5 7 20 15 15 15 13 15 14 15 15 19 20 14 10 8 10 10 14 19 21 19 17 9 6 5 4 3 6 7 7 8 8
7 14 13 11 11 12 16 11 15 12 5 12 6 15 26 19 16 14 15 9 6 10 11 9 7 6 6 6 7 15 19 21 19 19 15 19 13 11 6 8 4 6 8 8
7 10 9 7 7 6 14 10 12 6 5 5 17 2 28 10 20 20 12 4 6 7 11 15 13 13 12 12 9 13 18 18 18 19 17 14 12 6 7 7 9 6 6 8
8 4 4 7 12 6 7 4 3 1 2 9 24 5 21 6 5 8 9 5 7 11 13 12 14 12 13 13 11 4 17 19 18 19 18 19 16 13 11 10 9 7 5 6
6 5 5 6 7 6 5 4 4 4 2 14 7 7 16 10 3 7 14 11 11 7 17 15 18 17 16 17 16 7 11 13 17 17 16 17 17 15 14 13 10 10 7 6
4 6 6 10 2 5 8 8 6 5 4 5 7 7 5 7 6 5 13 18 17 17 16 18 16 15 16 18 18 10 11 14 12 12 14 12 12 9 9 11 10 8 9 9
5 4 16 7 7 5 7 4 5 6 6 7 5 10 1 11 12 13 15 10 12 17 12 12 16 15 15 16 18 17 5 8 14 14 9 10 11 11 9 10 9 8 7 6
2 8 2 7 10 3 5 6 4 3 4 8 6 7 1 12 12 14 7 7 12 13 14 15 15 16 15 14 15 17 14 10 8 3 9 12 11 11 10 11 10 10 8 7
1 1 4 5 2 5 8 5 6 4 5 6 6 3 4 3 5 3 5 10 12 12 13 14 14 15 15 14 15 15 15 8 8 7 4 7 8 11 11 10 9 9 9 8
1 1 4 7 16 15 13 4 0 6 2 4 2 4 6 11 14 12 9 10 12 13 13 14 15 16 17 17 17 16 15 15 12 7 7 5 7 10 10 8 7 8 8 7
0 1 4 9 5 8 6 6 2 5 6 8 5 2 9 12 11 13 11 11 13 15 15 15 16 16 16 16 17 17 16 14 14 4 9 7 8 10 8 7 7 8 8 8
3 2 5 7 10 9 12 16 13 3 5 7 9 4 8 4 5 10 9 11 13 14 16 15 16 15 16 15 15 14 15 15 15 3 7 10 9 9 9 9 9 9 6 7
5 4 4 7 10 14 17 18 18 15 13 9 9 3 6 5 8 11 10 11 13 15 17 16 16 15 15 16 15 14 14 14 14 11 11 7 9 9 10 11 10 9 10 10
2 3 2 14 11 13 15 16 16 15 13 13 9 10 10 9 9 12 12 12 13 15 15 15 16 16 15 16 15 14 14 14 14 13 13 10 12 11 10 11 11 10 10 11
6 4 1 11 7 14 15 14 15 7 7 5 3 5 10 9 11 10 9 11 12 12 13 14 14 14 14 14 14 14 13 12 13 14 14 13 13 13 12 11 10 13 12 11
8 5 3 8 9 7 9 12 20 16 11 11 9 7 10 10 11 9 10 10 11 11 12 13 11 12 13 13 14 13 13 13 13 13 13 14 14 15 13 14 13 12 11 12
14 6 3 4 4 12 6 5 4 5 8 9 6 6 10 12 13 11 9 11 10 8 8 9 10 10 12 14 13 13 15 14 14 14 13 12 14 17 14 18 14 11 12 12
10 10 6 3 5 5 4 17 15 8 6 9 8 6 4 9 2 3 7 8 10 10 9 9 10 10 13 13 12 15 15 16 16 15 12 13 13 13 16 16 13 12 13 12
5 5 13 10 4 5 14 22 13 3 3 8 10 12 11 6 7 6 5 8 8 9 10 10 12 12 13 12 12 15 14 15 12 13 13 15 15 13 13 13 12 13 13 13
5 3 4 6 4 3 20 7 7 6 8 9 11 10 13 10 9 6 7 8 9 10 11 11 11 13 13 13 12 13 14 11 11 10 14 14 15 11 11 13 12 12 12 13
4 5 3 5 4 4 8 11 12 10 10 9 10 9 9 8 5 7 7 8 10 10 9 10 11 12 13 11 11 13 11 10 10 13 13 12 14 13 12 12 11 9 10 9
9 12 3 4 5 10 9 10 12 11 11 10 10 9 7 9 8 7 7 7 8 9 9 9 11 13 13 12 13 12 10 10 11 12 12 12 13 13 12 10 9 9 8 8
4 8 7 7 8 9 10 9 9 10 11 11 12 9 8 9 8 7 8 9 9 9 9 10 11 11 12 11 12 12 10 8 10 10 10 10 10 11 11 11 9 9 10 9
6 4 3 2 5 5 6 8 9 9 9 8 10 10 8 8 9 9 8 7 8 10 9 10 11 10 11 11 12 11 10 9 8 7 6 6 6 6 7 8 9 22 19 19
Wind_Direction
222 127 226 230 215 219 255 275 275 280 266 255 275 277 284 268 271 279 281 277 263 262 266 241 231 240 240 229 178 179 180 178 163 168 163 176 185 171 172 173 162 175 183 177
329 226 235 229 229 230 247 256 269 272 265 229 274 271 273 283 258 265 269 272 274 277 269 262 240 239 214 225 198 185 182 172 177 178 179 180 182 181 167 161 171 180 177 166
218 252 266 229 253 249 246 244 259 262 274 246 285 279 288 281 274 276 276 270 275 275 272 263 249 245 241 224 203 183 182 178 179 178 152 113 113 82 116 179 179 172 157 166
236 259 242 259 243 241 261 244 257 264 322 293 167 289 287 279 273 277 286 294 13 5 356 5 27 31 10 327 248 191 186 179 177 169 168 164 178 173 188 173 157 141 158 176
252 309 311 288 253 238 266 228 236 264 276 347 275 215 280 335 297 286 286 14 43 32 22 360 8 5 351 352 315 191 180 178 170 173 172 164 170 158 141 145 152 150 160 170
232 228 211 246 273 229 296 288 352 314 144 262 272 193 277 279 306 358 338 2 43 16 35 4 353 358 353 352 344 263 181 176 171 170 167 166 164 158 156 162 166 169 174 174
297 248 261 292 293 296 215 73 317 325 334 254 284 261 259 278 87 47 19 10 356 42 34 359 359 356 357 352 338 316 177 186 179 173 169 169 164 163 163 164 166 166 177 189
341 338 15 341 8 270 261 200 209 254 238 290 337 260 272 15 14 343 44 18 354 355 22 7 351 355 352 351 339 332 198 169 172 179 169 163 160 161 167 168 159 170 176 188
338 264 332 28 347 336 323 244 219 242 281 293 238 266 353 31 34 30 22 4 326 20 12 348 357 0 353 350 345 346 242 184 175 166 164 162 161 159 163 154 153 160 147 145
312 294 319 346 333 318 357 285 304 332 242 254 245 254 1 6 10 14 25 348 356 11 360 6 357 354 357 357 346 360 4 70 55 300 171 162 159 156 150 146 151 149 140 144
17 226 327 342 328 335 344 342 322 271 223 249 283 283 224 265 248 196 7 9 10 5 2 4 355 357 360 3 3 359 1 336 78 2 225 149 143 138 144 144 142 142 142 151
171 224 283 277 276 259 240 307 232 283 345 281 212 248 24 43 10 86 43 13 11 2 4 5 2 1 4 6 2 5 359 350 346 203 226 126 142 125 132 136 144 146 144 155
194 322 327 306 332 36 14 317 245 262 254 241 245 226 57 66 46 30 15 12 12 4 8 6 5 8 6 6 4 359 355 348 331 267 147 134 145 125 129 136 165 152 140 155
87 201 202 254 289 322 294 297 295 245 274 310 282 277 94 88 75 54 20 20 17 11 13 9 8 5 5 5 4 1 357 350 343 332 107 98 92 91 95 90 78 77 105 118
136 201 235 255 286 280 272 276 273 258 265 253 281 132 85 32 39 49 23 24 18 16 17 14 6 4 3 5 2 0 5 3 357 11 55 56 93 92 92 83 76 76 81 77
195 246 235 291 291 284 293 275 265 256 258 261 244 110 110 70 43 38 25 19 22 19 15 16 10 5 8 6 3 360 4 7 12 21 39 38 53 61 68 80 80 73 68 68
173 178 31 278 305 318 291 245 232 106 18 228 70 72 114 90 60 29 27 31 26 16 15 20 13 8 7 6 8 8 3 12 27 28 32 39 48 55 54 58 78 77 69 69
191 148 158 280 296 247 320 64 99 95 58 52 84 76 91 106 93 62 36 42 33 18 16 16 13 9 16 12 17 18 17 26 29 34 38 43 51 56 51 59 42 62 73 73
199 156 230 233 252 292 271 31 329 76 75 41 55 51 140 138 119 60 46 48 44 24 15 14 16 13 18 22 18 29 27 30 32 35 37 46 56 61 50 60 46 44 61 63
167 194 183 217 272 312 48 332 321 204 82 33 43 29 125 181 88 41 36 40 47 38 24 20 24 35 29 23 29 40 29 27 28 24 34 52 51 62 76 68 58 53 57 58
160 195 221 222 246 285 359 320 306 111 62 65 58 46 53 78 65 96 62 62 49 38 30 25 32 41 34 22 35 39 33 29 20 24 33 40 49 46 60 70 72 77 64 63
167 228 206 183 174 278 351 3 54 89 88 94 85 84 83 77 77 73 71 60 56 48 35 29 40 38 27 31 39 42 38 21 26 34 42 38 41 41 43 54 63 60 65 75
56 344 50 34 88 53 16 47 43 73 86 82 88 86 93 95 81 78 78 67 66 54 42 37 41 41 34 30 50 53 42 33 37 43 43 39 46 44 41 47 47 57 61 61
351 12 89 114 69 73 69 62 52 58 72 77 86 104 96 89 69 69 70 68 65 56 47 40 42 40 37 29 31 39 51 44 48 50 46 43 51 50 45 47 47 48 46 59
343 330 18 89 110 111 61 66 79 72 70 80 72 70 81 92 79 79 75 70 65 63 53 47 47 43 37 32 33 29 29 45 60 56 54 50 49 50 58 56 51 60 54 58
351 354 4 61 350 90 79 70 75 89 90 88 96 83 66 84 86 84 79 73 72 65 55 51 48 42 33 32 28 18 20 32 48 68 68 65 66 64 63 66 69 65 73 77